This is the latest recevied weather packets stored in our database for station/object UA1CAS-13. If no packets are shown the sender has not sent any weather packets the latest 10 day(s).
| Time | Temp. | Humidity | Pressure | Rain* | Wind** | Luminosity | Snow |
|---|---|---|---|---|---|---|---|
| 1777737348 | 19.44° C | 39% | 1003 hPa | - | - | - | - |
| 1777736447 | 20° C | 38% | 1004 hPa | - | - | - | - |
| 1777735546 | 20.56° C | 38% | 1004 hPa | - | - | - | - |
| 1777734644 | 20.56° C | 37% | 1004 hPa | - | - | - | - |
| 1777733743 | 20.56° C | 39% | 1004 hPa | - | - | - | - |
| 1777732842 | 20.56° C | 37% | 1004 hPa | - | - | - | - |
| 1777731941 | 21.11° C | 38% | 1004 hPa | - | - | - | - |
| 1777731040 | 24.44° C | 34% | 1004 hPa | - | - | - | - |
| 1777730139 | 23.89° C | 35% | 1004 hPa | - | - | - | - |
| 1777729238 | 23.89° C | 36% | 1005 hPa | - | - | - | - |
| 1777728337 | 23.89° C | 34% | 1005 hPa | - | - | - | - |
| 1777727435 | 23.89° C | 35% | 1005 hPa | - | - | - | - |
| 1777726534 | 23.89° C | 34% | 1005 hPa | - | - | - | - |
| 1777725633 | 22.78° C | 33% | 1005 hPa | - | - | - | - |
| 1777724732 | 23.33° C | 31% | 1006 hPa | - | - | - | - |
| 1777723831 | 23.89° C | 30% | 1006 hPa | - | - | - | - |
| 1777722930 | 23.89° C | 29% | 1006 hPa | - | - | - | - |
| 1777722029 | 24.44° C | 30% | 1006 hPa | - | - | - | - |
| 1777721128 | 23.89° C | 31% | 1006 hPa | - | - | - | - |
| 1777720227 | 23.89° C | 33% | 1006 hPa | - | - | - | - |
| 1777719326 | 23.89° C | 31% | 1007 hPa | - | - | - | - |
| 1777718425 | 23.89° C | 33% | 1007 hPa | - | - | - | - |
| 1777717524 | 23.89° C | 34% | 1007 hPa | - | - | - | - |
| 1777716622 | 23.89° C | 35% | 1007 hPa | - | - | - | - |
| 1777715721 | 23.89° C | 35% | 1007 hPa | - | - | - | - |
* Rain since midnight (hover to see other rain measurements)
** Current wind speed in m/s (hover to see current wind gust speed)